www.pogodaiklimat.ru

Погода и климат >> Архив погоды >> Россия >> Бурятия >> Улан-Удэ АМС


ПОГОДА в Улан-Удэ АМС

  • Прогноз погоды в Улан-Удэ АМС
  • Монитор погоды в Улан-Удэ АМС

АРХИВ ПОГОДЫ в Улан-Удэ АМС

Время (UTC), дата Ветер
(напр.,м/с)
 
Видим.   Явления Облачность Т
(С)
Тd
(С)
f
(%)
Тe
(С)
Тes
(С)
Комфортность P
(гПа)
Po
(гПа)
Тmin
(С)
Tmax
(С)
R
(мм)
R24
(мм)
S
(см)
06 13.08 ЮЗ 1 н/о н/о +13.8 +13.0 95 +14 +14 1009.1 940.2
09 13.08 З 1 н/о н/о +14.2 +12.2 88 +15 +15 1008.9 940.1
12 13.08 штиль 0 н/о н/о +12.6 +11.5 93 +12 +12 1009.7 940.5 +17.4 8
15 13.08 Ю 2 н/о н/о +9.0 +8.7 98 +7 +7 1011.3 941.0
18 13.08 Ю 1 н/о н/о +8.9 +8.7 99 +8 +8 1011.1 940.8
21 13.08 ЮВ 1 н/о н/о +8.4 +8.2 99 +7 +7 1011.2 940.8
00 14.08 ЮЗ 1 н/о н/о +9.2 +9.0 99 +8 +8 1011.1 940.9 +7.5
03 14.08 З 1 н/о н/о +12.2 +11.7 97 +12 +12 1009.9 940.5
06 14.08 СЗ 3 н/о н/о +19.4 +9.8 54 +21 +21 комфорт 1006.6 939.1
09 14.08 СЗ 4 н/о н/о +18.1 +9.7 58 +18 +18 1007.1 939.3
12 14.08 СЗ 3 н/о н/о +15.5 +10.2 71 +15 +15 1009.0 940.4 +20.9
15 14.08 З 2 н/о н/о +13.0 +9.7 80 +12 +12 1011.4 942.0
18 14.08 З 2 н/о н/о +12.2 +9.5 84 +11 +11 1012.6 943.0
21 14.08 З 2 н/о н/о +11.2 +9.2 87 +10 +10 1014.0 944.0
00 15.08 З 2 н/о н/о +14.1 +9.7 75 +14 +14 1014.3 945.1 +9.8
03 15.08 СЗ 3 н/о н/о +16.2 +9.7 65 +16 +16 1014.2 945.4
06 15.08 З 4 н/о н/о +18.6 +10.2 58 +19 +19 1012.7 944.6
12 15.08 СЗ 2 н/о н/о +16.5 +9.4 63 +17 +17 1012.7 944.1 +19.7
18 15.08 ЮВ 2 н/о н/о +9.3 +8.2 93 +7 +7 1014.7 944.2
00 16.08 З 1 н/о н/о +11.0 +9.4 90 +11 +11 1014.5 944.5 +7.3
03 16.08 ЮЗ 2 н/о н/о +18.6 +10.0 57 +20 +20 1011.8 943.7
06 16.08 СЗ 1 н/о н/о +21.0 +8.8 46 +24 +24 комфорт 1009.5 942.1
12 16.08 С 1 н/о н/о +19.1 +11.0 59 +21 +21 комфорт 1008.9 941.1 +23.4
15 16.08 ЮВ 2 н/о н/о +12.8 +9.5 80 +12 +12 1010.6 941.3
18 16.08 ЮВ 2 н/о н/о +10.2 +8.7 90 +9 +9 1010.9 940.9
21 16.08 штиль 0 н/о н/о +8.8 +7.4 91 +8 +8 1011.1 940.7
00 17.08 СВ 2 н/о н/о +12.0 +8.7 80 +11 +11 1009.7 940.3 +7.8
03 17.08 С 1 н/о н/о +16.8 +10.4 66 +18 +18 1007.4 939.2
06 17.08 штиль 0 н/о н/о +14.2 +12.7 91 +14 +14 1007.6 938.9
09 17.08 штиль 0 н/о н/о +14.6 +13.8 95 +14 +14 1007.1 938.6
12 17.08 ЮЗ 1 н/о н/о +13.8 +12.5 92 +14 +14 1007.2 938.4 +17.0 3
15 17.08 Ю 2 н/о н/о +13.7 +12.7 94 +13 +13 1008.0 939.2
18 17.08 ЮЗ 1 н/о н/о +13.3 +12.0 92 +13 +13 1008.8 939.8
21 17.08 З 2 н/о н/о +13.2 +11.2 88 +12 +12 1010.1 940.9
00 18.08 З 3 н/о н/о +14.5 +11.0 80 +14 +14 1010.8 941.9 +13.2
03 18.08 СЗ 2 н/о н/о +17.6 +11.0 65 +18 +18 1010.8 942.6
06 18.08 СЗ 4 н/о н/о +18.5 +10.7 60 +19 +19 1010.4 942.4
09 18.08 З 3 н/о н/о +19.8 +10.5 55 +21 +21 комфорт 1009.1 941.5
12 18.08 штиль 0 н/о н/о +16.1 +10.5 69 +16 +16 1010.2 941.7 +20.0
15 18.08 ЮВ 2 н/о н/о +11.5 +10.0 90 +10 +10 1011.6 941.9
18 18.08 ЮВ 2 н/о н/о +9.7 +8.7 93 +8 +8 1011.9 941.7
21 18.08 ЮВ 2 н/о н/о +8.5 +8.0 97 +6 +6 1011.9 941.5
03 19.08 СВ 2 н/о н/о +14.9 +11.0 77 +15 +15 1009.0 940.3

 

Местоположение метеостанции Улан-Удэ АМС (Бурятия, Россия): широта 51.82 долгота 107.75 высота над уровнем моря 601 м.

В архиве по умолчанию представлена погода в Улан-Удэ АМС за последнюю неделю. Архивные данные за месяц целиком и за предыдущие месяцы, начиная с января 2011 года, Вы можете получить, выбрав интересующий диапазон дат из раскрывающегося списка и нажав кнопку "Ввод!".


*Определитесь, кто Вы:
робот инопланетянин человек

Внимание! Время в таблицах - всемирное. Для получения местного времени необходимо прибавить поправку, которая равна 8 ч.

Смотрите также архив погоды в соседних городах и на ближайших метеорологических станциях:

Погода в Улан-Удэ (Бурятия, Россия) (10 км)
Погода в Иволгинске (Бурятия, Россия) (39 км)
Погода в Новой Курбе (Бурятия, Россия) (58 км)
Погода в Кабанске (Бурятия, Россия) (83 км)
Погода в Мухоршибири (Бурятия, Россия) (88 км)
Погода в Петровском Заводе (Забайкальский край, Россия) (91 км)
Погода в Сухой (Бурятия, Россия) (93 км)
Погода в Новоселенгинске (Бурятия, Россия) (113 км)
Погода в Горячинске (Бурятия, Россия) (133 км)
Погода в Бабушкине (Бурятия, Россия) (135 км)

Пояснения к столбцам:

Ветер - указаны скорость ветра в м/с - средняя за 10 мин, порывы в срок и между сроками (в фигурных скобках) и направление, откуда дует ветер: С - северный, СВ - северо-восточный, В - восточный, ЮВ - юго-восточный, Ю - южный, ЮЗ - юго-западный, З - западный, СЗ - северо-западный.
Видимость - горизонтальная дальность видимости в метрах или километрах. При видимости от 1 до 10 км при отсутствии осадков обычно наблюдается дымка, при ухудшении видимости до 1 км и менее - туман. В сухую погоду видимость может ухудшаться дымом, пылью или мглою.
Явления - указаны атмосферные явления, наблюдавшиеся в срок или в последний час перед сроком; фигурными скобками обозначены явления, наблюдавшиеся между сроками (за 1-3 часа до срока); квадратными скобками обозначены град или гололедные отложения с указанием их диаметра в мм.
Облачность - указаны через наклонную черту общая и нижняя облачность в баллах и высота нижней границы облаков в метрах; квадратными скобками обозначены формы облаков: Ci - перистые, Cs - перисто-слоистые, Cc - перисто-кучевые, Ac - высококучевые, As - высокослоистые, Sc - слоисто-кучевые, Ns - слоисто-дождевые, Cu - кучевые, Cb - кучево-дождевые. Подробнее классификацию облаков см. в Атласе облаков (PDF).
T - Температура воздуха - температура, измеренная на высоте 2 м над землей.
Td - Температура точки росы - температура, при понижении до которой содержащийся в воздухе водяной пар достигнет насыщения.
f - Относительная влажность воздуха - влажноcть воздуха, измеренная на высоте 2 м над землей.
Te - Эффективная температура - температура, которую ощущает одетый по сезону человек в тени. Характеристика душности погоды. При расчете учитывается влияние влажности воздуха и скорости ветра на теплоощущения человека.
Tes - Эффективная температура на солнце - температура, которую ощущает человек, с поправкой на солнечный нагрев. Характеристика знойности погоды. Зависит от высоты солнца над горизонтом, облачности и скорости ветра. Ночью, в пасмурную погоду, а также при ветре 12 м/с и более поправка равна нулю.
P - Атмосферное давление - приведенное к уровню моря атмосферное давление.
Po - Атмосферное давление - измеренное на уровне метеостанции атмосферное давление.
Tmin - Минимальная температура - минимум температуры воздуха на высоте 2 м над землей.
Tmax - Максимальная температура - максимум температуры воздуха на высоте 2 м над землей.
R - Количество осадков - Количество выпавших осадков за период времени, мм. При наведении курсора мыши на число - период времени, за который выпало указанное количество осадков.
R24 - Количество осадков - Количество выпавших осадков за 24 часа, мм.
S - Снежный покров - Высота снежного покрова, см. При наведении курсора мыши на число - состояние снежного покрова и степень покрытия местности в баллах.